[[{"header":{"parameterUnit":"m.s-1","parameterCategory":2,"la1":30.2992,"la2":30.254,"lo1":-89.0895,"lo2":-89.0443,"dy":0.0025,"dx":0.0025,"nx":19,"ny":19,"refTime":"2026-05-17T21:00:00:Z","depth":"0","parameterNumber":2,"parameterNumberName":"U-component_of_CURRENTS"},"data":[0,0,0,-0.1994,-0.1995,-0.2011,-0.2011,-0.1984,-0.1983,0,0,0,0,0,0,0,0,0,0,0,-0.1984,-0.1984,-0.1994,-0.1995,-0.2011,-0.2011,-0.1984,-0.1983,0,0,0,0,0,0,0,0,0,0,0,-0.1984,-0.1984,-0.1985,-0.1995,-0.2011,-0.2011,-0.1984,-0.1981,0,0,0,0,0,0,0,0,0,0,-0.197,-0.1962,-0.1984,-0.1985,-0.1995,-0.2011,-0.2011,-0.1981,-0.1981,-0.1966,0,-0.1975,0,-0.1984,-0.1981,-0.1981,0,0,0,-0.1984,-0.1962,-0.1979,-0.1985,-0.1995,-0.2011,-0.2001,-0.1981,-0.1981,-0.1965,-0.1974,-0.1974,-0.1983,-0.1981,-0.1981,-0.2002,-0.2003,0,0,-0.1983,-0.1972,-0.1979,-0.1979,-0.2007,-0.2,-0.2001,-0.1982,-0.1976,-0.1974,-0.1974,-0.1983,-0.1981,-0.1981,-0.2002,-0.2002,0,0,0,-0.1988,-0.1972,-0.1989,-0.198,-0.199,-0.2001,-0.2002,-0.1977,-0.1986,-0.1973,-0.1983,-0.1981,-0.198,-0.2001,-0.2002,-0.204,0,0,0,-0.1987,-0.1975,-0.1989,-0.198,-0.1991,-0.1988,-0.1997,-0.1988,-0.1986,-0.1983,-0.1981,-0.198,-0.2001,-0.2002,-0.2038,-0.2023,0,0,0,-0.1982,-0.1974,-0.1982,-0.198,-0.1994,-0.1989,-0.1997,-0.1987,-0.1992,-0.1981,-0.198,-0.2,-0.2002,-0.2036,-0.2021,-0.197,0,0,0,-0.1963,-0.1994,-0.1981,-0.2024,-0.1994,-0.2046,-0.1997,-0.2022,-0.2021,-0.1981,-0.2001,-0.2002,-0.2036,-0.202,-0.197,-0.1797,-0.1784,0,0,-0.1999,-0.1998,-0.2028,-0.2019,-0.2072,-0.2042,-0.2082,-0.2056,-0.2028,-0.2001,-0.2001,-0.2039,-0.2021,-0.197,-0.1859,-0.1844,0,0,0,-0.204,-0.2046,-0.2068,-0.2088,-0.2121,-0.2114,-0.2105,-0.2089,-0.2066,-0.2034,-0.205,-0.2037,-0.2003,-0.19,-0.1888,-0.1826,-0.2007,-0.2007,-0.2007,-0.2026,-0.2061,-0.2095,-0.2128,-0.2155,-0.2165,-0.2157,-0.2126,-0.2115,-0.2112,-0.2078,-0.2076,-0.1971,-0.1959,-0.19,-0.2106,-0.2106,-0.2106,-0.2107,-0.2039,-0.2039,-0.2084,-0.2124,-0.214,-0.2161,-0.2169,-0.216,-0.2119,-0.2122,-0.2087,-0.1958,-0.1947,-0.1889,-0.2109,-0.2109,-0.2108,-0.2108,-0.2108,-0.1986,-0.1988,-0.2025,-0.2061,-0.2088,-0.2127,-0.2112,-0.2132,-0.2118,-0.2106,-0.1939,-0.1936,-0.1868,-0.2078,-0.2078,-0.2078,-0.2077,-0.2077,-0.2077,-0.189,-0.1934,-0.1929,-0.1986,-0.1998,-0.2024,-0.2063,-0.2041,-0.1969,-0.1936,-0.1934,-0.185,-0.2066,-0.2048,-0.2073,-0.2074,-0.2074,-0.2075,-0.2075,-0.1784,-0.1807,-0.1799,-0.181,-0.186,-0.1834,-0.1906,-0.1807,-0.1784,-0.1697,-0.1639,-0.1827,-0.1776,-0.1783,-0.1758,-0.1706,-0.1706,-0.1706,-0.1706,-0.1681,-0.1705,-0.1674,-0.1683,-0.1711,-0.1742,-0.1583,-0.1516,-0.1451,-0.139,-0.1459,-0.1446,-0.1464,-0.1396,-0.1412,-0.1381,-0.1234,-0.1234,-0.1234,-0.1583,-0.1598,-0.1551,-0.1606,-0.165,-0.1617,-0.1398,-0.1192,-0.1142,-0.1218,-0.1412,-0.1432,-0.1425,-0.1457,-0.1363,-0.1391,-0.1343,0,0]},{"header":{"parameterUnit":"m.s-1","parameterCategory":2,"la1":30.2992,"la2":30.254,"lo1":-89.0895,"lo2":-89.0443,"dy":0.0025,"dx":0.0025,"nx":19,"ny":19,"refTime":"2026-05-17T21:00:00:Z","depth":"0","parameterNumber":3,"parameterNumberName":"V-component_of_CURRENTS"},"data":[0,0,0,-0.0384,-0.0383,-0.0315,-0.0315,-0.021,-0.0209,0,0,0,0,0,0,0,0,0,0,0,-0.0408,-0.0408,-0.0384,-0.0383,-0.0315,-0.0315,-0.021,-0.0209,0,0,0,0,0,0,0,0,0,0,0,-0.0408,-0.0408,-0.0408,-0.0382,-0.0316,-0.0315,-0.021,-0.0262,0,0,0,0,0,0,0,0,0,0,-0.0329,-0.0361,-0.0408,-0.0408,-0.0382,-0.0316,-0.0315,-0.0265,-0.0259,-0.0239,0,-0.0239,0,-0.0226,-0.0203,-0.0202,0,0,0,-0.0369,-0.0366,-0.0348,-0.0408,-0.0382,-0.0316,-0.0342,-0.0262,-0.0255,-0.0231,-0.0237,-0.0233,-0.0224,-0.0202,-0.0202,-0.0129,-0.0128,0,0,-0.0373,-0.0391,-0.0353,-0.0345,-0.0376,-0.0344,-0.034,-0.0258,-0.0256,-0.0237,-0.0231,-0.0223,-0.0202,-0.0201,-0.0129,-0.0129,0,0,0,-0.0393,-0.0394,-0.0378,-0.0349,-0.0341,-0.0343,-0.0338,-0.0259,-0.0254,-0.0229,-0.0221,-0.0201,-0.02,-0.0129,-0.0129,-0.0179,0,0,0,-0.0394,-0.0407,-0.038,-0.039,-0.0343,-0.0303,-0.0341,-0.026,-0.025,-0.0222,-0.0201,-0.0199,-0.0129,-0.0129,-0.0178,-0.0199,0,0,0,-0.0409,-0.0408,-0.0404,-0.0391,-0.0368,-0.0304,-0.0293,-0.0257,-0.0246,-0.0202,-0.0199,-0.0129,-0.0129,-0.0177,-0.0196,-0.0138,0,0,0,-0.0424,-0.0447,-0.0405,-0.0423,-0.0369,-0.0344,-0.0294,-0.0267,-0.0236,-0.0201,-0.0129,-0.0129,-0.0176,-0.0195,-0.0138,-0.0024,-0.0015,0,0,-0.0467,-0.0453,-0.0463,-0.0424,-0.0425,-0.0352,-0.0331,-0.027,-0.0221,-0.0152,-0.015,-0.0178,-0.0196,-0.0138,-0.001,-0.0001,0,0,0,-0.0486,-0.0495,-0.0487,-0.0474,-0.0434,-0.0382,-0.0317,-0.0275,-0.0208,-0.0203,-0.0159,-0.0168,-0.013,-0.0061,-0.0054,0.0098,-0.0128,-0.0128,-0.0128,-0.0564,-0.0539,-0.0553,-0.0514,-0.0484,-0.0399,-0.0348,-0.0272,-0.0232,-0.0206,-0.0195,-0.0168,-0.0096,-0.0089,0.0064,-0.0179,-0.0179,-0.0179,-0.0179,-0.0635,-0.0643,-0.0596,-0.0604,-0.0529,-0.0494,-0.0371,-0.0323,-0.0222,-0.0213,-0.0172,-0.0101,-0.0084,0.0077,-0.0182,-0.0181,-0.0181,-0.0181,-0.0181,-0.0689,-0.069,-0.0688,-0.0677,-0.0633,-0.0544,-0.0453,-0.0372,-0.0266,-0.0231,-0.0089,-0.0087,0.0048,-0.0192,-0.0191,-0.0191,-0.0191,-0.0191,-0.0191,-0.0746,-0.0741,-0.0765,-0.0745,-0.0727,-0.0658,-0.0498,-0.039,-0.0209,-0.012,-0.0118,0.009,-0.017,-0.0177,-0.0189,-0.0189,-0.0189,-0.019,-0.019,-0.0809,-0.081,-0.0844,-0.0845,-0.0787,-0.0643,-0.053,-0.023,-0.0117,0.0005,0.023,-0.0029,0.0015,0.0011,0.001,0.0048,0.0048,0.0048,0.0048,-0.0851,-0.0855,-0.0894,-0.0888,-0.0825,-0.0635,-0.028,0.0009,0.0284,0.0419,0.0411,0.0442,0.0426,0.0494,0.0479,0.0489,0.0647,0.0648,0.0649,-0.0886,-0.0895,-0.0921,-0.0908,-0.083,-0.0556,-0.0094,0.0401,0.0668,0.0683,0.0599,0.0573,0.0624,0.0586,0.0694,0.0661,0.0676,0,0]}],[{"header":{"parameterUnit":"m.s-1","parameterCategory":2,"la1":30.2992,"la2":30.254,"lo1":-89.0895,"lo2":-89.0443,"dy":0.0025,"dx":0.0025,"nx":19,"ny":19,"refTime":"2026-05-17T21:00:00:Z","depth":"2","parameterNumber":2,"parameterNumberName":"U-component_of_CURRENTS"},"data":[0,0,0,-0.184,-0.1841,-0.1861,-0.1861,-0.1837,-0.1837,0,0,0,0,0,0,0,0,0,0,0,-0.183,-0.183,-0.184,-0.1841,-0.1861,-0.1861,-0.1837,-0.1837,0,0,0,0,0,0,0,0,0,0,0,-0.1829,-0.183,-0.183,-0.1841,-0.1861,-0.1861,-0.1837,-0.1832,0,0,0,0,0,0,0,0,0,0,-0.1818,-0.1811,-0.183,-0.183,-0.1841,-0.1861,-0.1861,-0.1833,-0.1833,-0.1817,0,-0.1826,0,-0.1835,-0.1835,-0.1835,0,0,0,-0.1832,-0.1811,-0.1827,-0.183,-0.1842,-0.1861,-0.1849,-0.1833,-0.1833,-0.1817,-0.1826,-0.1825,-0.1835,-0.1835,-0.1835,-0.1851,-0.1852,0,0,-0.1831,-0.1821,-0.1827,-0.1827,-0.1853,-0.1849,-0.185,-0.1833,-0.1829,-0.1826,-0.1825,-0.1835,-0.1835,-0.1835,-0.1851,-0.1852,0,0,0,-0.1834,-0.182,-0.1836,-0.1827,-0.1838,-0.185,-0.1851,-0.1829,-0.1838,-0.1825,-0.1834,-0.1835,-0.1834,-0.1851,-0.1851,-0.1891,0,0,0,-0.1833,-0.1823,-0.1836,-0.1828,-0.1838,-0.1839,-0.1847,-0.1839,-0.1838,-0.1835,-0.1835,-0.1834,-0.185,-0.1851,-0.1889,-0.1876,0,0,0,-0.1827,-0.1822,-0.1829,-0.1828,-0.1843,-0.184,-0.1847,-0.1839,-0.1844,-0.1835,-0.1834,-0.185,-0.1851,-0.1887,-0.1874,-0.1827,0,0,0,-0.181,-0.1837,-0.1828,-0.1865,-0.1843,-0.1889,-0.1847,-0.1872,-0.1872,-0.1835,-0.185,-0.1851,-0.1886,-0.1873,-0.1826,-0.1655,-0.1642,0,0,-0.184,-0.184,-0.1867,-0.1861,-0.1907,-0.1885,-0.1922,-0.1902,-0.1876,-0.1849,-0.185,-0.1889,-0.1874,-0.1827,-0.171,-0.1695,0,0,0,-0.1875,-0.1881,-0.19,-0.192,-0.195,-0.1948,-0.1943,-0.193,-0.1913,-0.1882,-0.1897,-0.1886,-0.1854,-0.1752,-0.1741,-0.1856,-0.1856,-0.1855,-0.1855,-0.1863,-0.1894,-0.1924,-0.1955,-0.198,-0.1993,-0.1989,-0.1963,-0.1954,-0.1954,-0.1925,-0.1924,-0.1819,-0.1807,-0.1949,-0.1949,-0.1949,-0.195,-0.195,-0.1872,-0.1871,-0.1914,-0.1951,-0.197,-0.1992,-0.2002,-0.1996,-0.1961,-0.1966,-0.1934,-0.1808,-0.1796,-0.1953,-0.1952,-0.1952,-0.1952,-0.1951,-0.1951,-0.1824,-0.1825,-0.1862,-0.1896,-0.1926,-0.1966,-0.1952,-0.1975,-0.1965,-0.1955,-0.1792,-0.1789,-0.1904,-0.193,-0.193,-0.193,-0.1929,-0.1929,-0.1929,-0.1736,-0.1777,-0.1774,-0.183,-0.1842,-0.1871,-0.1911,-0.1891,-0.1824,-0.1791,-0.1789,-0.1915,-0.1916,-0.1901,-0.1926,-0.1926,-0.1927,-0.1927,-0.1927,-0.1635,-0.1658,-0.1651,-0.1662,-0.1707,-0.1664,-0.175,-0.1658,-0.1643,-0.156,-0.1678,-0.1686,-0.1636,-0.1643,-0.162,-0.157,-0.157,-0.157,-0.157,-0.1538,-0.156,-0.1527,-0.153,-0.1549,-0.1564,-0.139,-0.132,-0.1344,-0.1319,-0.133,-0.1318,-0.1337,-0.127,-0.1286,-0.1257,-0.1112,-0.1111,-0.1111,-0.1442,-0.1456,-0.1404,-0.145,-0.1478,-0.1417,-0.1165,-0.0917,-0.089,-0.1098,-0.1305,-0.1529,-0.1541,-0.1559,-0.1483,-0.1499,-0.1462,0,0]},{"header":{"parameterUnit":"m.s-1","parameterCategory":2,"la1":30.2992,"la2":30.254,"lo1":-89.0895,"lo2":-89.0443,"dy":0.0025,"dx":0.0025,"nx":19,"ny":19,"refTime":"2026-05-17T21:00:00:Z","depth":"2","parameterNumber":3,"parameterNumberName":"V-component_of_CURRENTS"},"data":[0,0,0,-0.0395,-0.0395,-0.0334,-0.0334,-0.0236,-0.0235,0,0,0,0,0,0,0,0,0,0,0,-0.0417,-0.0417,-0.0396,-0.0395,-0.0334,-0.0334,-0.0236,-0.0235,0,0,0,0,0,0,0,0,0,0,0,-0.0417,-0.0417,-0.0417,-0.0394,-0.0334,-0.0334,-0.0236,-0.0284,0,0,0,0,0,0,0,0,0,0,-0.0343,-0.0374,-0.0417,-0.0417,-0.0394,-0.0334,-0.0334,-0.0286,-0.0281,-0.0261,0,-0.0262,0,-0.0251,-0.0229,-0.0229,0,0,0,-0.0381,-0.0378,-0.0362,-0.0417,-0.0394,-0.0335,-0.0358,-0.0283,-0.0277,-0.0254,-0.026,-0.0256,-0.0249,-0.0228,-0.0228,-0.0153,-0.0153,0,0,-0.0385,-0.0402,-0.0367,-0.0359,-0.039,-0.036,-0.0356,-0.0279,-0.0278,-0.026,-0.0254,-0.0247,-0.0228,-0.0227,-0.0154,-0.0153,0,0,0,-0.0403,-0.0404,-0.039,-0.0363,-0.0356,-0.0358,-0.0354,-0.0281,-0.0277,-0.0253,-0.0246,-0.0227,-0.0226,-0.0154,-0.0153,-0.0202,0,0,0,-0.0404,-0.0416,-0.0392,-0.0401,-0.0358,-0.0321,-0.0357,-0.0282,-0.0273,-0.0247,-0.0227,-0.0225,-0.0154,-0.0154,-0.0201,-0.0224,0,0,0,-0.0418,-0.0417,-0.0414,-0.0402,-0.0382,-0.0323,-0.0313,-0.028,-0.0269,-0.0229,-0.0225,-0.0154,-0.0154,-0.02,-0.0222,-0.0171,0,0,0,-0.0431,-0.0453,-0.0415,-0.0432,-0.0382,-0.0359,-0.0313,-0.0288,-0.0259,-0.0227,-0.0154,-0.0153,-0.02,-0.0221,-0.0171,-0.0079,-0.0072,0,0,-0.0472,-0.0459,-0.0468,-0.0433,-0.0433,-0.0365,-0.0345,-0.0289,-0.0242,-0.0176,-0.0174,-0.0201,-0.0222,-0.0171,-0.0056,-0.005,0,0,0,-0.0489,-0.0499,-0.0491,-0.0479,-0.0441,-0.0392,-0.0331,-0.0291,-0.0227,-0.0224,-0.018,-0.019,-0.0157,-0.01,-0.0095,-0.0152,-0.0152,-0.0152,-0.0152,-0.0564,-0.0541,-0.0555,-0.0518,-0.0489,-0.0407,-0.0359,-0.0285,-0.0247,-0.0221,-0.0214,-0.0189,-0.013,-0.0125,-0.0194,-0.0194,-0.0194,-0.0194,-0.0194,-0.0634,-0.0644,-0.0598,-0.0607,-0.0535,-0.0501,-0.0381,-0.0335,-0.0238,-0.0228,-0.0191,-0.0136,-0.0122,-0.0198,-0.0197,-0.0197,-0.0196,-0.0196,-0.0196,-0.069,-0.0692,-0.069,-0.0682,-0.064,-0.0554,-0.0471,-0.0387,-0.0284,-0.0251,-0.013,-0.0128,-0.0205,-0.0216,-0.0216,-0.0216,-0.0216,-0.0215,-0.0215,-0.075,-0.0746,-0.0772,-0.0753,-0.0738,-0.0676,-0.052,-0.042,-0.025,-0.0163,-0.0161,-0.0194,-0.0194,-0.0204,-0.0214,-0.0214,-0.0214,-0.0214,-0.0214,-0.0817,-0.0818,-0.0857,-0.0861,-0.0815,-0.0728,-0.0588,-0.0312,-0.0189,-0.0077,-0.0082,-0.0086,-0.0048,-0.005,-0.0055,-0.0025,-0.0025,-0.0025,-0.0025,-0.0864,-0.0867,-0.0918,-0.0923,-0.0878,-0.0749,-0.0534,-0.0294,-0.0068,-0.0003,-0.0005,-0.0006,-0.0012,0.0027,0.0023,0.0019,0.0067,0.0067,0.0067,-0.0903,-0.0914,-0.0954,-0.0956,-0.0901,-0.0738,-0.0537,-0.0344,-0.01,0.0063,-0.0071,-0.0003,-0.0008,-0.0017,0.0042,0.0035,0.0029,0,0]}],[{"header":{"parameterUnit":"m.s-1","parameterCategory":2,"la1":30.2992,"la2":30.254,"lo1":-89.0895,"lo2":-89.0443,"dy":0.0025,"dx":0.0025,"nx":19,"ny":19,"refTime":"2026-05-17T21:00:00:Z","depth":"4","parameterNumber":2,"parameterNumberName":"U-component_of_CURRENTS"},"data":[0,0,0,-0.1281,-0.1283,-0.1371,-0.1371,-0.1412,-0.1412,0,0,0,0,0,0,0,0,0,0,0,-0.1255,-0.1255,-0.1281,-0.1283,-0.1371,-0.1371,-0.1412,-0.1412,0,0,0,0,0,0,0,0,0,0,0,-0.1254,-0.1255,-0.1256,-0.1284,-0.1371,-0.1371,-0.1412,-0.1364,0,0,0,0,0,0,0,0,0,0,-0.1288,-0.1275,-0.1255,-0.1256,-0.1284,-0.1371,-0.1372,-0.1362,-0.1367,-0.1352,0,-0.1373,0,-0.139,-0.1414,-0.1414,0,0,0,-0.1284,-0.1271,-0.1292,-0.1256,-0.1285,-0.1371,-0.1332,-0.1366,-0.137,-0.1357,-0.1373,-0.1375,-0.1391,-0.1414,-0.1414,-0.1437,-0.1437,0,0,-0.1279,-0.127,-0.1289,-0.1296,-0.1316,-0.1329,-0.1334,-0.1369,-0.1377,-0.1374,-0.1377,-0.1392,-0.1414,-0.1414,-0.1437,-0.1437,0,0,0,-0.1265,-0.1267,-0.1289,-0.1294,-0.1314,-0.1331,-0.1338,-0.1376,-0.1383,-0.1377,-0.1392,-0.1414,-0.1414,-0.1436,-0.1437,-0.1473,0,0,0,-0.1262,-0.1258,-0.1287,-0.1282,-0.1314,-0.1356,-0.1343,-0.1381,-0.1386,-0.1392,-0.1414,-0.1414,-0.1436,-0.1437,-0.1472,-0.1478,0,0,0,-0.1249,-0.1257,-0.1269,-0.1281,-0.1319,-0.1356,-0.1366,-0.1383,-0.1394,-0.1414,-0.1414,-0.1436,-0.1437,-0.1471,-0.1476,-0.1443,0,0,0,-0.1233,-0.1254,-0.1269,-0.1302,-0.1318,-0.1367,-0.1366,-0.1412,-0.1433,-0.1414,-0.1436,-0.1437,-0.147,-0.1475,-0.1443,-0.1239,0,0,0,-0.1247,-0.1256,-0.1276,-0.1291,-0.1336,-0.1355,-0.1399,-0.1431,-0.1428,-0.1419,-0.1421,-0.1472,-0.1476,-0.1443,-0.126,0,0,0,0,-0.1271,-0.1283,-0.1301,-0.1335,-0.1371,-0.1407,-0.1437,-0.1442,-0.1463,-0.1442,-0.1469,-0.1469,-0.1447,-0.1328,-0.1438,-0.1438,-0.1438,-0.1438,-0.1438,-0.126,-0.1289,-0.1321,-0.136,-0.1395,-0.1445,-0.1468,-0.1476,-0.1478,-0.1492,-0.1497,-0.1494,-0.1371,-0.1499,-0.1499,-0.15,-0.15,-0.15,-0.15,-0.126,-0.1264,-0.1325,-0.1369,-0.1418,-0.1461,-0.1496,-0.151,-0.151,-0.1518,-0.1495,-0.1373,-0.1503,-0.1503,-0.1502,-0.1502,-0.1501,-0.1501,-0.1501,-0.1219,-0.1222,-0.1278,-0.1341,-0.1409,-0.1472,-0.1479,-0.1529,-0.1531,-0.1533,-0.1368,-0.1499,-0.1495,-0.1516,-0.1516,-0.1516,-0.1516,-0.1516,-0.1516,-0.1136,-0.1189,-0.1216,-0.1303,-0.1345,-0.1402,-0.1472,-0.1453,-0.1485,-0.1372,-0.1534,-0.1498,-0.1498,-0.1494,-0.1514,-0.1514,-0.1515,-0.1515,-0.1515,-0.1038,-0.1079,-0.1103,-0.1144,-0.1217,-0.1238,-0.1357,-0.1291,-0.1245,-0.1171,-0.1264,-0.1277,-0.1232,-0.1238,-0.1224,-0.1164,-0.1161,-0.1158,0,-0.0952,-0.098,-0.0976,-0.0991,-0.0993,-0.1111,-0.1014,-0.1031,-0.1052,-0.1014,-0.1219,-0.1326,-0.1334,-0.1286,-0.1287,-0.127,0,0,0,-0.0869,-0.0889,-0.0838,-0.0876,-0.0867,-0.0876,-0.0968,-0.0905,-0.1092,-0.0985,-0.1093,-0.111,-0.1356,-0.151,-0.147,-0.147,-0.1461,0,0]},{"header":{"parameterUnit":"m.s-1","parameterCategory":2,"la1":30.2992,"la2":30.254,"lo1":-89.0895,"lo2":-89.0443,"dy":0.0025,"dx":0.0025,"nx":19,"ny":19,"refTime":"2026-05-17T21:00:00:Z","depth":"4","parameterNumber":3,"parameterNumberName":"V-component_of_CURRENTS"},"data":[0,0,0,-0.0265,-0.0265,-0.0246,-0.0246,-0.0185,-0.0184,0,0,0,0,0,0,0,0,0,0,0,-0.0272,-0.0272,-0.0265,-0.0265,-0.0246,-0.0246,-0.0185,-0.0184,0,0,0,0,0,0,0,0,0,0,0,-0.0272,-0.0272,-0.0272,-0.0265,-0.0246,-0.0246,-0.0185,-0.0206,0,0,0,0,0,0,0,0,0,0,-0.0227,-0.0246,-0.0272,-0.0272,-0.0265,-0.0246,-0.0246,-0.0207,-0.0204,-0.0186,0,-0.0192,0,-0.019,-0.018,-0.018,0,0,0,-0.0254,-0.0248,-0.0243,-0.0272,-0.0265,-0.0246,-0.0251,-0.0206,-0.0203,-0.0182,-0.0191,-0.0189,-0.0189,-0.018,-0.0179,-0.0108,-0.0108,0,0,-0.0255,-0.0265,-0.0245,-0.0241,-0.0271,-0.0252,-0.0251,-0.0204,-0.0205,-0.0191,-0.0188,-0.0188,-0.0179,-0.0179,-0.0108,-0.0108,0,0,0,-0.0265,-0.0266,-0.0262,-0.0243,-0.0245,-0.0252,-0.0251,-0.0207,-0.0206,-0.0187,-0.0188,-0.0179,-0.0178,-0.0109,-0.0108,-0.015,0,0,0,-0.0265,-0.0273,-0.0263,-0.0268,-0.0247,-0.0232,-0.0255,-0.0209,-0.0204,-0.0188,-0.0179,-0.0178,-0.0109,-0.0108,-0.0149,-0.018,0,0,0,-0.0271,-0.0273,-0.0274,-0.0268,-0.0265,-0.0233,-0.0229,-0.0208,-0.0204,-0.018,-0.0177,-0.0109,-0.0108,-0.0149,-0.0178,-0.0151,0,0,0,-0.0276,-0.0294,-0.0275,-0.029,-0.0265,-0.0252,-0.0229,-0.0216,-0.0198,-0.0179,-0.0109,-0.0108,-0.0149,-0.0178,-0.0151,-0.0191,0,0,0,-0.0302,-0.0297,-0.0305,-0.0288,-0.0293,-0.0253,-0.0238,-0.0209,-0.0175,-0.0121,-0.0119,-0.015,-0.0178,-0.0151,-0.0142,0,0,0,0,-0.0315,-0.0327,-0.0322,-0.0322,-0.0298,-0.0272,-0.0234,-0.0203,-0.0156,-0.0162,-0.0121,-0.0138,-0.0119,-0.014,-0.0104,-0.0104,-0.0104,-0.0105,-0.0105,-0.0369,-0.0356,-0.0372,-0.0353,-0.0335,-0.028,-0.0248,-0.0193,-0.0163,-0.014,-0.015,-0.0131,-0.0154,-0.0118,-0.0118,-0.0118,-0.0118,-0.0119,-0.0119,-0.0426,-0.044,-0.0415,-0.0431,-0.0386,-0.0364,-0.0269,-0.0234,-0.0164,-0.0149,-0.0128,-0.0157,-0.0122,-0.0121,-0.0121,-0.012,-0.012,-0.012,-0.012,-0.0472,-0.0477,-0.0489,-0.0504,-0.0487,-0.0425,-0.0378,-0.0301,-0.0212,-0.0192,-0.0177,-0.0144,-0.0163,-0.017,-0.017,-0.017,-0.017,-0.017,-0.017,-0.0518,-0.0525,-0.0569,-0.0575,-0.0585,-0.0555,-0.0443,-0.0376,-0.0274,-0.0226,-0.0199,-0.0148,-0.0146,-0.0164,-0.017,-0.017,-0.017,-0.017,-0.017,-0.0571,-0.0584,-0.0646,-0.0674,-0.0688,-0.0654,-0.0553,-0.0397,-0.0323,-0.0253,-0.0221,-0.0219,-0.0202,-0.0198,-0.0217,-0.024,-0.0241,-0.0241,0,-0.061,-0.0619,-0.0713,-0.0764,-0.0775,-0.0711,-0.0601,-0.0491,-0.0357,-0.0371,-0.0336,-0.0309,-0.0303,-0.0293,-0.029,-0.0318,0,0,0,-0.0645,-0.067,-0.0744,-0.0802,-0.0818,-0.0678,-0.057,-0.0518,-0.0386,-0.0297,-0.0255,-0.0251,-0.0227,-0.0171,-0.0138,-0.0136,-0.0162,0,0]}]]